TimeCST,TemperatureF,Dew PointF,Humidity,Sea Level PressureIn,VisibilityMPH,Wind Direction,Wind SpeedMPH,Gust SpeedMPH,PrecipitationIn,Events,Conditions,WindDirDegrees,DateUTC
12:15 AM,23.0,21.2,93,29.94,10.0,Calm,Calm,-,N/A,,Overcast,0,2012-12-29 06:15:00
12:35 AM,23.0,21.2,93,29.95,10.0,Calm,Calm,-,N/A,,Overcast,0,2012-12-29 06:35:00
12:55 AM,23.0,21.2,93,29.95,10.0,Calm,Calm,-,N/A,,Overcast,0,2012-12-29 06:55:00
1:15 AM,23.0,21.2,93,29.95,10.0,Calm,Calm,-,N/A,,Overcast,0,2012-12-29 07:15:00
1:35 AM,23.0,21.2,93,29.95,10.0,WNW,3.5,-,N/A,,Overcast,290,2012-12-29 07:35:00
1:55 AM,23.0,21.2,93,29.95,10.0,WNW,3.5,-,N/A,,Overcast,300,2012-12-29 07:55:00
2:15 AM,21.2,21.2,100,29.95,10.0,NW,4.6,-,N/A,,Mostly Cloudy,310,2012-12-29 08:15:00
2:35 AM,21.2,21.2,100,29.95,10.0,NW,4.6,-,N/A,,Mostly Cloudy,310,2012-12-29 08:35:00
2:55 AM,21.2,21.2,100,29.95,10.0,WNW,3.5,-,N/A,,Overcast,290,2012-12-29 08:55:00
3:15 AM,21.2,19.4,93,29.95,10.0,WNW,3.5,-,N/A,,Mostly Cloudy,300,2012-12-29 09:15:00
3:35 AM,21.2,19.4,93,29.95,10.0,WNW,3.5,-,N/A,Snow,Light Snow,290,2012-12-29 09:35:00
3:55 AM,21.2,19.4,93,29.96,7.0,Calm,Calm,-,N/A,Snow,Light Snow,0,2012-12-29 09:55:00
4:15 AM,21.2,19.4,93,29.96,7.0,WNW,3.5,-,N/A,Snow,Light Snow,290,2012-12-29 10:15:00
4:35 AM,21.2,19.4,93,29.97,10.0,West,5.8,-,N/A,Snow,Light Snow,270,2012-12-29 10:35:00
4:55 AM,21.2,19.4,93,29.97,10.0,West,4.6,-,N/A,Snow,Light Snow,280,2012-12-29 10:55:00
5:15 AM,21.2,19.4,93,29.97,10.0,WNW,4.6,-,N/A,Snow,Light Snow,290,2012-12-29 11:15:00
5:35 AM,21.2,19.4,93,29.98,10.0,WNW,8.1,-,N/A,,Overcast,290,2012-12-29 11:35:00
6:15 AM,21.2,19.4,93,29.99,10.0,WNW,5.8,-,N/A,Snow,Light Snow,290,2012-12-29 12:15:00
6:35 AM,21.2,19.4,93,29.99,7.0,WNW,5.8,-,N/A,Snow,Light Snow,290,2012-12-29 12:35:00
6:55 AM,21.2,19.4,93,29.99,7.0,WNW,6.9,-,N/A,Snow,Light Snow,300,2012-12-29 12:55:00
7:15 AM,21.2,19.4,93,30.00,5.0,WNW,6.9,-,N/A,Snow,Light Snow,290,2012-12-29 13:15:00
7:35 AM,21.2,17.6,86,30.00,7.0,WNW,6.9,-,N/A,Snow,Light Snow,290,2012-12-29 13:35:00
7:55 AM,21.2,17.6,86,30.01,4.0,WNW,9.2,-,N/A,Snow,Light Snow,300,2012-12-29 13:55:00
8:15 AM,19.4,17.6,93,30.02,10.0,NW,8.1,-,N/A,,Overcast,310,2012-12-29 14:15:00
8:35 AM,19.4,17.6,93,30.02,10.0,NW,9.2,16.1,N/A,,Overcast,310,2012-12-29 14:35:00
8:55 AM,19.4,17.6,93,30.03,10.0,NW,8.1,-,N/A,,Overcast,310,2012-12-29 14:55:00
9:15 AM,19.4,17.6,93,30.04,10.0,WNW,9.2,-,N/A,Snow,Light Snow,300,2012-12-29 15:15:00
9:35 AM,21.2,17.6,86,30.04,10.0,NW,9.2,-,N/A,Snow,Light Snow,310,2012-12-29 15:35:00
9:55 AM,21.2,17.6,86,30.05,10.0,WNW,6.9,-,N/A,Snow,Light Snow,300,2012-12-29 15:55:00
10:15 AM,21.2,15.8,80,30.05,10.0,NW,9.2,-,N/A,,Mostly Cloudy,310,2012-12-29 16:15:00
10:35 AM,21.2,15.8,80,30.05,10.0,WNW,10.4,-,N/A,,Overcast,290,2012-12-29 16:35:00
10:55 AM,21.2,15.8,80,30.05,10.0,WNW,9.2,-,N/A,,Overcast,300,2012-12-29 16:55:00
11:15 AM,21.2,15.8,80,30.05,10.0,NW,8.1,-,N/A,,Overcast,320,2012-12-29 17:15:00
11:35 AM,21.2,17.6,86,30.05,10.0,WNW,8.1,-,N/A,,Overcast,300,2012-12-29 17:35:00
11:55 AM,21.2,15.8,80,30.05,10.0,NW,10.4,-,N/A,,Overcast,310,2012-12-29 17:55:00
12:15 PM,21.2,15.8,80,30.05,10.0,NW,8.1,-,N/A,,Overcast,320,2012-12-29 18:15:00
12:35 PM,21.2,15.8,80,30.05,10.0,West,9.2,-,N/A,,Overcast,280,2012-12-29 18:35:00
12:55 PM,21.2,17.6,86,30.05,10.0,NW,10.4,-,N/A,,Overcast,310,2012-12-29 18:55:00
1:15 PM,21.2,17.6,86,30.05,10.0,NW,9.2,-,N/A,,Overcast,310,2012-12-29 19:15:00
1:35 PM,21.2,17.6,86,30.05,10.0,West,8.1,-,N/A,,Overcast,280,2012-12-29 19:35:00
1:55 PM,21.2,15.8,80,30.05,10.0,West,8.1,-,N/A,,Overcast,270,2012-12-29 19:55:00
2:15 PM,21.2,15.8,80,30.05,10.0,West,8.1,-,N/A,,Overcast,270,2012-12-29 20:15:00
2:35 PM,21.2,15.8,80,30.06,10.0,WNW,9.2,-,N/A,,Overcast,300,2012-12-29 20:35:00
2:55 PM,21.2,15.8,80,30.07,10.0,West,5.8,-,N/A,,Overcast,270,2012-12-29 20:55:00
3:15 PM,21.2,15.8,80,30.08,10.0,West,8.1,-,N/A,,Overcast,280,2012-12-29 21:15:00
3:35 PM,21.2,15.8,80,30.08,10.0,West,6.9,-,N/A,,Overcast,270,2012-12-29 21:35:00
3:55 PM,21.2,15.8,80,30.09,10.0,West,5.8,-,N/A,,Overcast,270,2012-12-29 21:55:00
4:15 PM,21.2,14.0,74,30.09,10.0,West,6.9,-,N/A,,Overcast,260,2012-12-29 22:15:00
4:35 PM,19.4,14.0,80,30.10,10.0,West,6.9,-,N/A,,Overcast,270,2012-12-29 22:35:00
5:15 PM,19.4,14.0,80,30.10,10.0,Calm,Calm,-,N/A,,Mostly Cloudy,0,2012-12-29 23:15:00
5:35 PM,17.6,14.0,86,30.10,10.0,Calm,Calm,-,N/A,,Scattered Clouds,0,2012-12-29 23:35:00
5:55 PM,14.0,12.2,93,30.11,10.0,Calm,Calm,-,N/A,,Clear,0,2012-12-29 23:55:00
6:15 PM,14.0,12.2,93,30.11,10.0,WSW,3.5,-,N/A,,Clear,240,2012-12-30 00:15:00
6:35 PM,14.0,12.2,93,30.12,10.0,WSW,3.5,-,N/A,,Clear,250,2012-12-30 00:35:00
6:55 PM,14.0,12.2,93,30.12,10.0,Calm,Calm,-,N/A,,Clear,0,2012-12-30 00:55:00
7:15 PM,6.8,5.0,92,30.12,7.0,Calm,Calm,-,N/A,,Clear,0,2012-12-30 01:15:00
7:35 PM,6.8,3.2,85,30.14,7.0,Calm,Calm,-,N/A,,Clear,0,2012-12-30 01:35:00
7:55 PM,3.2,1.4,92,30.14,10.0,Calm,Calm,-,N/A,,Clear,0,2012-12-30 01:55:00
8:15 PM,10.4,8.6,92,30.14,10.0,Calm,Calm,-,N/A,,Scattered Clouds,0,2012-12-30 02:15:00
8:55 PM,12.2,10.4,92,30.15,10.0,WSW,3.5,-,N/A,,Overcast,240,2012-12-30 02:55:00
9:15 PM,12.2,10.4,92,30.14,10.0,WSW,3.5,-,N/A,,Overcast,240,2012-12-30 03:15:00
9:35 PM,12.2,10.4,92,30.15,10.0,Calm,Calm,-,N/A,,Mostly Cloudy,0,2012-12-30 03:35:00
9:55 PM,12.2,10.4,92,30.16,10.0,WSW,3.5,-,N/A,,Mostly Cloudy,250,2012-12-30 03:55:00
10:15 PM,12.2,10.4,92,30.16,10.0,Calm,Calm,-,N/A,,Overcast,0,2012-12-30 04:15:00
10:35 PM,12.2,10.4,92,30.16,10.0,Calm,Calm,-,N/A,,Overcast,0,2012-12-30 04:35:00
10:55 PM,12.2,8.6,85,30.17,10.0,WSW,3.5,-,N/A,,Overcast,240,2012-12-30 04:55:00
11:15 PM,12.2,8.6,85,30.17,10.0,WSW,4.6,-,N/A,,Overcast,240,2012-12-30 05:15:00
11:35 PM,12.2,8.6,85,30.17,10.0,SW,3.5,-,N/A,,Overcast,220,2012-12-30 05:35:00
11:55 PM,12.2,8.6,85,30.18,10.0,WSW,4.6,-,N/A,,Overcast,250,2012-12-30 05:55:00